Back to catalog

THORAD AGENA D DEB

AlivePO
NORAD 4950·DEBRIS·🇺🇸 United States

Launched Apr 8, 1970 from Vandenberg Space Force Base

Loading…

Next Passes (next 24 hours)

TLE

FreshSource: Space-Track

Epoch: Sep 14, 2026, 04:07 UTC

1 04950U 70025GL  26257.17165472  .00000194  00000-0  59304-3 0  9995
2 04950  99.8171 142.7115 0219689 174.5842 340.3040 13.10228406695159

Track THORAD AGENA D DEB in real time with AllMySat

Download on the App Store